UAL413 KMCO-KIAD

Flight info

Callsign UAL413
Flight time 1h 49m
Altitude 37000
Route FATHE4 VIYAP Q87 ALWZZ OGRAE BZNGA DORRN CAVLR6
Aircraft A320/M-SDE3FGHIRWY/LB1

Departure

Time 2026-05-04 23:30
Airport Orlando International Airport (KMCO)

Arrival

Time 2026-05-05 01:20
Airport Washington Dulles International Airport (KIAD)
Time Latitude Longitude Altitude Speed Heading
2026-05-04 23:03 28.42717 -81.31505 102 ft 0 kts 123°
2026-05-04 23:10 28.42717 -81.31506 101 ft 0 kts 123°
2026-05-04 23:16 28.42724 -81.31518 101 ft 4 kts 116°
2026-05-04 23:16 28.42733 -81.31547 99 ft 4 kts 97°
2026-05-04 23:16 28.42733 -81.31577 99 ft 4 kts 77°
2026-05-04 23:17 28.42724 -81.31606 100 ft 4 kts 65°
2026-05-04 23:17 28.42713 -81.31633 102 ft 4 kts 76°
2026-05-04 23:17 28.42709 -81.31650 102 ft 4 kts 131°
2026-05-04 23:17 28.42725 -81.31656 99 ft 4 kts 167°
2026-05-04 23:18 28.42739 -81.31660 102 ft 0 kts 168°
2026-05-04 23:20 28.42736 -81.31659 102 ft 1 kts 168°
2026-05-04 23:21 28.42719 -81.31655 99 ft 4 kts 168°
2026-05-04 23:21 28.42687 -81.31647 102 ft 6 kts 168°
2026-05-04 23:21 28.42643 -81.31637 102 ft 8 kts 168°
2026-05-04 23:21 28.42585 -81.31621 102 ft 10 kts 167°
2026-05-04 23:22 28.42538 -81.31610 102 ft 11 kts 171°
2026-05-04 23:22 28.42460 -81.31625 103 ft 12 kts 208°
2026-05-04 23:22 28.42391 -81.31665 105 ft 11 kts 187°
2026-05-04 23:22 28.42348 -81.31586 103 ft 13 kts 89°
2026-05-04 23:23 28.42349 -81.31472 101 ft 16 kts 89°
2026-05-04 23:23 28.42350 -81.31386 100 ft 17 kts 89°
2026-05-04 23:23 28.42348 -81.31244 100 ft 19 kts 94°
2026-05-04 23:23 28.42326 -81.31093 100 ft 20 kts 101°
2026-05-04 23:24 28.42318 -81.30950 100 ft 16 kts 88°
2026-05-04 23:24 28.42326 -81.30828 101 ft 15 kts 85°
2026-05-04 23:24 28.42333 -81.30728 106 ft 13 kts 85°
2026-05-04 23:24 28.42341 -81.30623 106 ft 14 kts 86°
2026-05-04 23:25 28.42348 -81.30505 106 ft 16 kts 85°
2026-05-04 23:25 28.42357 -81.30359 101 ft 20 kts 88°
2026-05-04 23:25 28.42360 -81.30200 103 ft 20 kts 89°
2026-05-04 23:25 28.42361 -81.30041 104 ft 21 kts 89°
2026-05-04 23:26 28.42362 -81.29871 103 ft 22 kts 89°
2026-05-04 23:26 28.42274 -81.29792 102 ft 20 kts 178°
2026-05-04 23:26 28.42128 -81.29790 102 ft 22 kts 180°
2026-05-04 23:26 28.41968 -81.29789 102 ft 24 kts 179°
2026-05-04 23:27 28.41795 -81.29788 102 ft 26 kts 179°
2026-05-04 23:27 28.41611 -81.29786 102 ft 27 kts 179°
2026-05-04 23:27 28.41443 -81.29785 101 ft 22 kts 179°
2026-05-04 23:27 28.41284 -81.29783 101 ft 24 kts 179°
2026-05-04 23:28 28.41112 -81.29780 101 ft 26 kts 179°
2026-05-04 23:28 28.40957 -81.29779 100 ft 18 kts 180°
2026-05-04 23:28 28.40831 -81.29756 100 ft 18 kts 128°
2026-05-04 23:28 28.40822 -81.29623 97 ft 13 kts 88°
2026-05-04 23:29 28.40874 -81.29560 97 ft 11 kts 358°
2026-05-04 23:29 28.40903 -81.29560 97 ft 19 kts
2026-05-04 23:29 28.41283 -81.29562 102 ft 87 kts 359°
2026-05-04 23:29 28.42074 -81.29571 102 ft 139 kts 359°
2026-05-04 23:30 28.43177 -81.29584 183 ft 171 kts
2026-05-04 23:30 28.44348 -81.29580 808 ft 167 kts 11°
2026-05-04 23:30 28.45435 -81.29229 1431 ft 161 kts 33°
2026-05-04 23:30 28.46415 -81.28608 1975 ft 166 kts 33°
2026-05-04 23:31 28.47483 -81.27913 2222 ft 188 kts 33°
2026-05-04 23:31 28.48684 -81.27129 2490 ft 210 kts 33°
2026-05-04 23:31 28.50010 -81.26264 2836 ft 229 kts 33°
2026-05-04 23:31 28.51467 -81.25443 3467 ft 239 kts 20°
2026-05-04 23:32 28.53158 -81.25182 4046 ft 257 kts
2026-05-04 23:32 28.54964 -81.25060 4664 ft 269 kts 359°
2026-05-04 23:32 28.56855 -81.25090 5425 ft 275 kts 356°
2026-05-04 23:32 28.58789 -81.25193 6211 ft 281 kts 353°
2026-05-04 23:33 28.60749 -81.25423 6981 ft 285 kts 350°
2026-05-04 23:33 28.62726 -81.25724 7787 ft 288 kts 349°
2026-05-04 23:33 28.64714 -81.26043 8642 ft 289 kts 349°
2026-05-04 23:33 28.66717 -81.26359 9450 ft 292 kts 349°
2026-05-04 23:34 28.68735 -81.26669 10234 ft 294 kts 350°
2026-05-04 23:34 28.70827 -81.26981 10525 ft 315 kts 349°
2026-05-04 23:34 28.73078 -81.27311 10686 ft 338 kts 350°
2026-05-04 23:34 28.75464 -81.27650 11063 ft 350 kts 351°
2026-05-04 23:35 28.77901 -81.27988 11670 ft 355 kts 351°
2026-05-04 23:35 28.80366 -81.28331 12326 ft 359 kts 351°
2026-05-04 23:35 28.82855 -81.28674 13002 ft 362 kts 352°
2026-05-04 23:35 28.85367 -81.29003 13649 ft 365 kts 352°
2026-05-04 23:36 28.87907 -81.29259 14265 ft 368 kts 354°
2026-05-04 23:36 28.90471 -81.29469 14806 ft 371 kts 354°
2026-05-04 23:36 28.93062 -81.29662 15350 ft 375 kts 354°
2026-05-04 23:36 28.95678 -81.29856 15885 ft 379 kts 354°
2026-05-04 23:37 28.98320 -81.30058 16449 ft 382 kts 353°
2026-05-04 23:37 29.00977 -81.30286 17013 ft 385 kts 352°
2026-05-04 23:37 29.03620 -81.30564 17570 ft 388 kts 351°
2026-05-04 23:37 29.06313 -81.30875 18150 ft 391 kts 350°
2026-05-04 23:38 29.09029 -81.31200 18685 ft 394 kts 350°
2026-05-04 23:38 29.11805 -81.31519 19229 ft 398 kts 351°
2026-05-04 23:38 29.14542 -81.31751 19761 ft 401 kts 352°
2026-05-04 23:38 29.17336 -81.31920 20331 ft 404 kts 353°
2026-05-04 23:39 29.20152 -81.32057 20874 ft 406 kts 353°
2026-05-04 23:39 29.22987 -81.32187 21397 ft 408 kts 353°
2026-05-04 23:39 29.25832 -81.32326 21916 ft 411 kts 352°
2026-05-04 23:39 29.28696 -81.32479 22400 ft 413 kts 352°
2026-05-04 23:40 29.31569 -81.32645 22888 ft 415 kts 351°
2026-05-04 23:40 29.34457 -81.32820 23353 ft 417 kts 351°
2026-05-04 23:40 29.37364 -81.33001 23780 ft 419 kts 351°
2026-05-04 23:40 29.40283 -81.33184 24151 ft 421 kts 351°
2026-05-04 23:41 29.43221 -81.33366 24518 ft 423 kts 351°
2026-05-04 23:41 29.46164 -81.33546 24884 ft 425 kts 351°
2026-05-04 23:41 29.49129 -81.33725 25235 ft 427 kts 351°
2026-05-04 23:41 29.52103 -81.33903 25581 ft 429 kts 351°
2026-05-04 23:42 29.55095 -81.34082 25957 ft 431 kts 350°
2026-05-04 23:42 29.58096 -81.34261 26294 ft 433 kts 350°
2026-05-04 23:42 29.61115 -81.34445 26638 ft 435 kts 350°
2026-05-04 23:42 29.64143 -81.34633 26985 ft 437 kts 350°
2026-05-04 23:43 29.67184 -81.34817 27324 ft 439 kts 350°
2026-05-04 23:43 29.70239 -81.34992 27660 ft 441 kts 350°
2026-05-04 23:43 29.73273 -81.35162 27994 ft 443 kts 350°
2026-05-04 23:43 29.76356 -81.35336 28318 ft 445 kts 349°
2026-05-04 23:44 29.79452 -81.35513 28634 ft 447 kts 349°
2026-05-04 23:44 29.82557 -81.35692 29071 ft 446 kts 349°
2026-05-04 23:44 29.85647 -81.35867 29575 ft 444 kts 349°
2026-05-04 23:44 29.88729 -81.36039 30047 ft 443 kts 349°
2026-05-04 23:45 29.91806 -81.36211 30471 ft 442 kts 349°
2026-05-04 23:45 29.94869 -81.36384 30877 ft 440 kts 348°
2026-05-04 23:45 29.97925 -81.36558 31286 ft 439 kts 348°
2026-05-04 23:45 30.00966 -81.36732 31694 ft 437 kts 348°
2026-05-04 23:46 30.03996 -81.36906 32106 ft 436 kts 348°
2026-05-04 23:46 30.07021 -81.37080 32525 ft 434 kts 348°
2026-05-04 23:46 30.10031 -81.37252 32940 ft 433 kts 348°
2026-05-04 23:46 30.13030 -81.37427 33424 ft 431 kts 348°
2026-05-04 23:47 30.16024 -81.37604 33841 ft 430 kts 348°
2026-05-04 23:47 30.19011 -81.37779 34228 ft 429 kts 348°
2026-05-04 23:47 30.21989 -81.37953 34545 ft 428 kts 348°
2026-05-04 23:47 30.24970 -81.38126 34833 ft 428 kts 348°
2026-05-04 23:48 30.27945 -81.38297 35130 ft 428 kts 348°
2026-05-04 23:48 30.30918 -81.38469 35410 ft 428 kts 348°
2026-05-04 23:48 30.33855 -81.38641 35676 ft 428 kts 347°
2026-05-04 23:48 30.36828 -81.38818 35937 ft 428 kts 347°
2026-05-04 23:49 30.39840 -81.38993 36196 ft 428 kts 348°
2026-05-04 23:49 30.42813 -81.39163 36448 ft 428 kts 348°
2026-05-04 23:49 30.45789 -81.39333 36694 ft 428 kts 347°
2026-05-04 23:49 30.48728 -81.39498 36930 ft 428 kts 348°
2026-05-04 23:50 30.51744 -81.39660 37087 ft 429 kts 348°
2026-05-04 23:50 30.54706 -81.39821 37111 ft 434 kts 348°
2026-05-04 23:50 30.60827 -81.40141 37105 ft 439 kts 348°
2026-05-04 23:51 30.66890 -81.40451 37116 ft 439 kts 348°
2026-05-04 23:51 30.72996 -81.40766 37108 ft 439 kts 348°
2026-05-04 23:52 30.79095 -81.41093 37104 ft 439 kts 348°
2026-05-04 23:52 30.85195 -81.41430 37107 ft 439 kts 348°
2026-05-04 23:53 30.91303 -81.41751 37111 ft 440 kts 348°
2026-05-04 23:53 30.97418 -81.42072 37121 ft 440 kts 348°
2026-05-04 23:54 31.03515 -81.42395 37108 ft 438 kts 348°
2026-05-04 23:54 31.09544 -81.42723 37106 ft 439 kts 348°
2026-05-04 23:55 31.15713 -81.43058 37108 ft 439 kts 348°
2026-05-04 23:56 31.24891 -81.43042 37173 ft 455 kts
2026-05-04 23:56 31.27974 -81.42042 37103 ft 465 kts 13°
2026-05-04 23:56 31.30944 -81.40484 37100 ft 469 kts 16°
2026-05-04 23:57 31.36870 -81.37259 37094 ft 470 kts 16°
2026-05-04 23:57 31.42805 -81.34037 37099 ft 472 kts 16°
2026-05-04 23:58 31.48771 -81.30793 37105 ft 472 kts 16°
2026-05-04 23:58 31.54727 -81.27551 37102 ft 471 kts 17°
2026-05-04 23:59 31.60683 -81.24308 37086 ft 472 kts 17°
2026-05-04 23:59 31.66654 -81.21053 37079 ft 474 kts 17°
2026-05-05 00:00 31.72642 -81.17789 37087 ft 475 kts 17°
2026-05-05 00:00 31.78637 -81.14505 37124 ft 476 kts 17°
2026-05-05 00:01 31.84633 -81.11222 37107 ft 475 kts 17°
2026-05-05 00:01 31.90587 -81.07959 37093 ft 475 kts 17°
2026-05-05 00:02 31.96576 -81.04666 37085 ft 475 kts 17°
2026-05-05 00:02 32.02558 -81.01370 37087 ft 475 kts 18°
2026-05-05 00:03 32.08500 -80.98041 37069 ft 470 kts 19°
2026-05-05 00:03 32.14405 -80.94716 37071 ft 470 kts 19°
2026-05-05 00:04 32.20325 -80.91401 37110 ft 471 kts 19°
2026-05-05 00:04 32.26253 -80.88070 37108 ft 472 kts 19°
2026-05-05 00:05 32.32196 -80.84731 37147 ft 473 kts 19°
2026-05-05 00:05 32.38139 -80.81386 37133 ft 473 kts 19°
2026-05-05 00:06 32.44085 -80.78036 37119 ft 473 kts 19°
2026-05-05 00:06 32.49986 -80.74701 37123 ft 473 kts 19°
2026-05-05 00:07 32.55929 -80.71339 37136 ft 473 kts 19°
2026-05-05 00:07 32.61852 -80.67992 37117 ft 471 kts 19°
2026-05-05 00:08 32.67772 -80.64631 37120 ft 472 kts 19°
2026-05-05 00:08 32.73690 -80.61253 37118 ft 472 kts 20°
2026-05-05 00:09 32.79576 -80.57763 37118 ft 473 kts 21°
2026-05-05 00:09 32.85426 -80.54235 37100 ft 470 kts 21°
2026-05-05 00:10 32.91268 -80.50737 37089 ft 470 kts 20°
2026-05-05 00:10 32.97129 -80.47264 37096 ft 471 kts 20°
2026-05-05 00:11 33.02995 -80.43774 37109 ft 471 kts 21°
2026-05-05 00:11 33.08857 -80.40259 37108 ft 472 kts 21°
2026-05-05 00:12 33.14727 -80.36738 37110 ft 472 kts 21°
2026-05-05 00:12 33.20559 -80.33248 37110 ft 472 kts 21°
2026-05-05 00:13 33.26429 -80.29723 37109 ft 472 kts 21°
2026-05-05 00:13 33.32298 -80.26188 37131 ft 472 kts 21°
2026-05-05 00:14 33.38162 -80.22658 37117 ft 472 kts 21°
2026-05-05 00:14 33.44020 -80.19125 37114 ft 471 kts 21°
2026-05-05 00:15 33.49878 -80.15589 37108 ft 471 kts 21°
2026-05-05 00:15 33.55735 -80.12053 37109 ft 472 kts 21°
2026-05-05 00:16 33.60595 -80.09105 37108 ft 470 kts 21°
2026-05-05 00:16 33.66430 -80.05559 37103 ft 470 kts 21°
2026-05-05 00:17 33.72264 -80.02014 37105 ft 470 kts 21°
2026-05-05 00:17 33.79057 -79.97890 37092 ft 471 kts 21°
2026-05-05 00:18 33.83941 -79.94914 37082 ft 468 kts 21°
2026-05-05 00:18 33.89736 -79.91371 37083 ft 467 kts 21°
2026-05-05 00:19 33.95529 -79.87828 37078 ft 467 kts 21°
2026-05-05 00:19 34.01321 -79.84286 37083 ft 467 kts 21°
2026-05-05 00:20 34.07118 -79.80737 37102 ft 467 kts 21°
2026-05-05 00:20 34.12874 -79.77206 37094 ft 467 kts 21°
2026-05-05 00:21 34.18666 -79.73641 37089 ft 467 kts 21°
2026-05-05 00:21 34.24457 -79.70071 37086 ft 467 kts 21°
2026-05-05 00:22 34.30244 -79.66501 37103 ft 467 kts 21°
2026-05-05 00:22 34.36036 -79.62926 37081 ft 467 kts 21°
2026-05-05 00:23 34.41823 -79.59346 37085 ft 467 kts 21°
2026-05-05 00:23 34.47605 -79.55763 37075 ft 467 kts 21°
2026-05-05 00:24 34.53386 -79.52162 37069 ft 467 kts 21°
2026-05-05 00:24 34.59140 -79.48499 37084 ft 468 kts 23°
2026-05-05 00:25 34.64831 -79.44635 37082 ft 469 kts 24°
2026-05-05 00:25 34.70598 -79.41178 37082 ft 460 kts 12°
2026-05-05 00:26 34.76759 -79.39587 37080 ft 451 kts
2026-05-05 00:26 34.82957 -79.38290 37085 ft 452 kts
2026-05-05 00:27 34.89157 -79.36970 37079 ft 453 kts
2026-05-05 00:27 34.95367 -79.35641 37041 ft 453 kts
2026-05-05 00:28 35.01574 -79.34306 37038 ft 453 kts
2026-05-05 00:28 35.07785 -79.32974 37054 ft 453 kts
2026-05-05 00:29 35.13998 -79.31642 37048 ft 453 kts
2026-05-05 00:29 35.20212 -79.30308 37078 ft 453 kts
2026-05-05 00:30 35.26422 -79.28967 37075 ft 453 kts
2026-05-05 00:30 35.32634 -79.27636 37083 ft 452 kts
2026-05-05 00:31 35.38826 -79.26311 37070 ft 452 kts
2026-05-05 00:31 35.44979 -79.24977 37060 ft 452 kts
2026-05-05 00:32 35.51172 -79.23631 37062 ft 452 kts
2026-05-05 00:32 35.57363 -79.22290 37064 ft 452 kts
2026-05-05 00:33 35.63561 -79.20947 37063 ft 452 kts
2026-05-05 00:33 35.69752 -79.19602 37061 ft 452 kts
2026-05-05 00:34 35.75735 -79.16915 37059 ft 467 kts 25°
2026-05-05 00:34 35.80960 -79.12033 37064 ft 474 kts 35°
2026-05-05 00:35 35.86033 -79.06856 37037 ft 474 kts 34°
2026-05-05 00:35 35.91113 -79.01680 37034 ft 474 kts 34°
2026-05-05 00:36 35.96192 -78.96487 37030 ft 475 kts 35°
2026-05-05 00:36 36.01271 -78.91268 37046 ft 475 kts 35°
2026-05-05 00:37 36.06312 -78.86083 37036 ft 474 kts 35°
2026-05-05 00:37 36.11386 -78.80871 37045 ft 474 kts 35°
2026-05-05 00:38 36.16454 -78.75641 37041 ft 474 kts 35°
2026-05-05 00:38 36.21512 -78.70407 37065 ft 474 kts 35°
2026-05-05 00:39 36.26556 -78.65186 37009 ft 472 kts 35°
2026-05-05 00:39 36.31598 -78.59965 37011 ft 473 kts 35°
2026-05-05 00:40 36.36643 -78.54719 37016 ft 474 kts 35°
2026-05-05 00:40 36.41841 -78.49755 37022 ft 467 kts 25°
2026-05-05 00:41 36.47665 -78.46385 36670 ft 461 kts 17°
2026-05-05 00:41 36.50613 -78.44823 36402 ft 460 kts 17°
2026-05-05 00:41 36.53558 -78.43259 36149 ft 461 kts 17°
2026-05-05 00:41 36.56506 -78.41690 35888 ft 461 kts 17°
2026-05-05 00:42 36.59455 -78.40119 35630 ft 461 kts 17°
2026-05-05 00:42 36.62404 -78.38548 35385 ft 462 kts 17°
2026-05-05 00:42 36.65360 -78.36969 35139 ft 462 kts 17°
2026-05-05 00:42 36.68305 -78.35391 34928 ft 460 kts 17°
2026-05-05 00:43 36.71242 -78.33816 34685 ft 458 kts 17°
2026-05-05 00:43 36.74167 -78.32248 34444 ft 458 kts 17°
2026-05-05 00:43 36.77089 -78.30679 34209 ft 457 kts 17°
2026-05-05 00:43 36.80014 -78.29106 33963 ft 457 kts 17°
2026-05-05 00:44 36.82935 -78.27532 33680 ft 457 kts 17°
2026-05-05 00:44 36.85855 -78.25959 33410 ft 457 kts 17°
2026-05-05 00:44 36.88776 -78.24384 33140 ft 457 kts 17°
2026-05-05 00:44 36.91686 -78.22815 32897 ft 454 kts 18°
2026-05-05 00:45 36.94581 -78.21254 32618 ft 453 kts 18°
2026-05-05 00:45 36.97474 -78.19697 32354 ft 452 kts 18°
2026-05-05 00:45 37.00359 -78.18145 32094 ft 451 kts 18°
2026-05-05 00:45 37.03243 -78.16593 31830 ft 451 kts 18°
2026-05-05 00:46 37.06126 -78.15034 31577 ft 451 kts 18°
2026-05-05 00:46 37.09001 -78.13473 31324 ft 451 kts 18°
2026-05-05 00:46 37.11873 -78.11909 31082 ft 450 kts 18°
2026-05-05 00:46 37.14749 -78.10345 30836 ft 450 kts 19°
2026-05-05 00:47 37.17619 -78.08785 30592 ft 450 kts 19°
2026-05-05 00:47 37.20483 -78.07228 30347 ft 448 kts 19°
2026-05-05 00:47 37.23332 -78.05681 30102 ft 445 kts 19°
2026-05-05 00:47 37.26169 -78.04139 29826 ft 443 kts 19°
2026-05-05 00:48 37.28994 -78.02600 29533 ft 442 kts 19°
2026-05-05 00:48 37.31769 -78.01087 29252 ft 440 kts 19°
2026-05-05 00:48 37.34573 -77.99556 28994 ft 439 kts 18°
2026-05-05 00:48 37.37396 -77.98016 28476 ft 434 kts 18°
2026-05-05 00:49 37.40157 -77.96508 27872 ft 430 kts 18°
2026-05-05 00:49 37.42852 -77.95036 27310 ft 426 kts 19°
2026-05-05 00:49 37.45561 -77.93551 26725 ft 423 kts 19°
2026-05-05 00:49 37.48257 -77.92074 26143 ft 421 kts 19°
2026-05-05 00:50 37.50929 -77.90609 25572 ft 418 kts 19°
2026-05-05 00:50 37.53596 -77.89145 25011 ft 417 kts 19°
2026-05-05 00:50 37.56245 -77.87671 24457 ft 416 kts 20°
2026-05-05 00:50 37.58885 -77.86175 23903 ft 416 kts 20°
2026-05-05 00:51 37.61520 -77.84669 23321 ft 416 kts 20°
2026-05-05 00:51 37.64146 -77.83161 22776 ft 414 kts 20°
2026-05-05 00:51 37.66748 -77.81671 22493 ft 405 kts 20°
2026-05-05 00:51 37.69283 -77.80242 22353 ft 391 kts 19°
2026-05-05 00:52 37.71700 -77.78893 22090 ft 371 kts 19°
2026-05-05 00:52 37.74029 -77.77603 21509 ft 361 kts 18°
2026-05-05 00:52 37.76314 -77.76346 20830 ft 356 kts 18°
2026-05-05 00:52 37.78569 -77.75106 20146 ft 351 kts 18°
2026-05-05 00:53 37.80782 -77.73882 19611 ft 343 kts 18°
2026-05-05 00:53 37.82936 -77.72684 19185 ft 334 kts 17°
2026-05-05 00:53 37.85061 -77.71503 18763 ft 335 kts 17°
2026-05-05 00:53 37.87200 -77.70316 18318 ft 336 kts 17°
2026-05-05 00:54 37.89337 -77.69127 17918 ft 334 kts 17°
2026-05-05 00:54 37.91467 -77.67944 17462 ft 334 kts 17°
2026-05-05 00:54 37.93562 -77.66778 17079 ft 332 kts 17°
2026-05-05 00:54 37.95670 -77.65599 16639 ft 332 kts 17°
2026-05-05 00:55 37.97756 -77.64428 16369 ft 326 kts 17°
2026-05-05 00:55 37.99824 -77.63273 15993 ft 324 kts 17°
2026-05-05 00:55 38.01873 -77.62129 15422 ft 320 kts 17°
2026-05-05 00:55 38.03900 -77.60994 14805 ft 316 kts 17°
2026-05-05 00:56 38.05887 -77.59872 14283 ft 309 kts 18°
2026-05-05 00:56 38.07801 -77.58703 13845 ft 302 kts 20°
2026-05-05 00:56 38.09650 -77.57519 13376 ft 294 kts 20°
2026-05-05 00:56 38.11449 -77.56353 12943 ft 285 kts 20°
2026-05-05 00:57 38.13189 -77.55224 12537 ft 277 kts 20°
2026-05-05 00:57 38.14914 -77.54112 12133 ft 279 kts 19°
2026-05-05 00:57 38.16659 -77.53003 11729 ft 281 kts 19°
2026-05-05 00:57 38.18415 -77.51886 11319 ft 284 kts 19°
2026-05-05 00:58 38.20192 -77.50755 10896 ft 287 kts 19°
2026-05-05 00:58 38.21980 -77.49612 10475 ft 289 kts 20°
2026-05-05 00:58 38.23796 -77.48485 10059 ft 290 kts 15°
2026-05-05 00:58 38.25695 -77.47739 9732 ft 283 kts
2026-05-05 00:59 38.27575 -77.47082 9551 ft 279 kts
2026-05-05 00:59 38.29446 -77.46418 9367 ft 279 kts
2026-05-05 00:59 38.31316 -77.45750 9154 ft 279 kts
2026-05-05 00:59 38.33192 -77.45089 8937 ft 280 kts
2026-05-05 01:00 38.35068 -77.44432 8723 ft 280 kts
2026-05-05 01:00 38.36948 -77.43773 8513 ft 280 kts
2026-05-05 01:00 38.38826 -77.43112 8302 ft 280 kts
2026-05-05 01:00 38.40706 -77.42443 8084 ft 280 kts
2026-05-05 01:01 38.42583 -77.41772 7877 ft 280 kts
2026-05-05 01:01 38.44460 -77.41103 7660 ft 281 kts
2026-05-05 01:01 38.46327 -77.40446 7441 ft 283 kts
2026-05-05 01:01 38.48226 -77.39776 7223 ft 284 kts
2026-05-05 01:02 38.50159 -77.39090 7010 ft 285 kts
2026-05-05 01:02 38.52068 -77.38452 6789 ft 284 kts
2026-05-05 01:02 38.53989 -77.37839 6571 ft 285 kts
2026-05-05 01:02 38.55888 -77.37240 6355 ft 285 kts
2026-05-05 01:03 38.57813 -77.36637 6121 ft 285 kts
2026-05-05 01:03 38.59779 -77.36337 5905 ft 279 kts 355°
2026-05-05 01:03 38.61692 -77.36290 5703 ft 279 kts 355°
2026-05-05 01:03 38.63639 -77.36228 5501 ft 279 kts 356°
2026-05-05 01:04 38.65577 -77.36159 5297 ft 279 kts 356°
2026-05-05 01:04 38.69489 -77.36015 4872 ft 282 kts 356°
2026-05-05 01:04 38.71450 -77.35940 4669 ft 282 kts 356°
2026-05-05 01:05 38.73414 -77.35863 4460 ft 282 kts 356°
2026-05-05 01:05 38.75372 -77.35785 4256 ft 281 kts 357°
2026-05-05 01:05 38.77325 -77.35706 4048 ft 281 kts 357°
2026-05-05 01:05 38.79306 -77.35632 3932 ft 282 kts 356°
2026-05-05 01:06 38.81237 -77.35563 3866 ft 282 kts 357°
2026-05-05 01:06 38.83195 -77.35497 3785 ft 282 kts 356°
2026-05-05 01:06 38.85156 -77.35434 3729 ft 282 kts 356°
2026-05-05 01:06 38.87114 -77.35365 3667 ft 282 kts 357°
2026-05-05 01:07 38.89066 -77.35291 3611 ft 281 kts 357°
2026-05-05 01:07 38.91026 -77.35214 3546 ft 281 kts 357°
2026-05-05 01:07 38.92323 -77.35161 3513 ft 282 kts 357°
2026-05-05 01:07 38.94948 -77.35062 3429 ft 282 kts 357°
2026-05-05 01:08 38.96240 -77.35018 3388 ft 281 kts 358°
2026-05-05 01:08 38.98193 -77.34950 3331 ft 282 kts 358°
2026-05-05 01:08 39.00157 -77.34882 3267 ft 281 kts 357°
2026-05-05 01:08 39.02108 -77.34814 3201 ft 281 kts 358°
2026-05-05 01:09 39.04068 -77.34745 3099 ft 281 kts 357°
2026-05-05 01:09 39.06023 -77.34675 3030 ft 282 kts 357°
2026-05-05 01:09 39.07984 -77.34607 2902 ft 282 kts 357°
2026-05-05 01:09 39.09952 -77.34541 2873 ft 281 kts 357°
2026-05-05 01:10 39.11916 -77.34470 3007 ft 282 kts 357°
2026-05-05 01:10 39.13880 -77.34401 3023 ft 282 kts 357°
2026-05-05 01:10 39.15813 -77.34332 3025 ft 282 kts 357°
2026-05-05 01:10 39.17772 -77.34261 3026 ft 282 kts 358°
2026-05-05 01:11 39.19732 -77.34190 3030 ft 281 kts 357°
2026-05-05 01:11 39.21687 -77.34122 3026 ft 281 kts 358°
2026-05-05 01:11 39.23645 -77.34056 3028 ft 281 kts 357°
2026-05-05 01:11 39.25586 -77.34121 3023 ft 276 kts 342°
2026-05-05 01:12 39.27201 -77.35250 3030 ft 260 kts 307°
2026-05-05 01:12 39.27943 -77.37257 3031 ft 246 kts 270°
2026-05-05 01:12 39.27577 -77.39329 3020 ft 239 kts 235°
2026-05-05 01:12 39.26285 -77.40613 3021 ft 242 kts 199°
2026-05-05 01:13 39.24625 -77.40904 3011 ft 247 kts 187°
2026-05-05 01:13 39.22942 -77.41036 3008 ft 236 kts 187°
2026-05-05 01:13 39.21353 -77.41149 3008 ft 221 kts 187°
2026-05-05 01:13 39.19881 -77.41240 3010 ft 204 kts 187°
2026-05-05 01:14 39.18496 -77.41317 3006 ft 193 kts 188°
2026-05-05 01:14 39.17160 -77.41480 2637 ft 195 kts 195°
2026-05-05 01:14 39.15852 -77.41915 2378 ft 191 kts 199°
2026-05-05 01:14 39.14620 -77.42395 2275 ft 180 kts 200°
2026-05-05 01:15 39.13500 -77.42836 2239 ft 157 kts 201°
2026-05-05 01:15 39.12517 -77.43219 2173 ft 141 kts 201°
2026-05-05 01:15 39.11592 -77.43582 2100 ft 138 kts 200°
2026-05-05 01:15 39.10683 -77.43936 2039 ft 137 kts 200°
2026-05-05 01:16 39.09775 -77.44287 2014 ft 136 kts 200°
2026-05-05 01:16 39.08871 -77.44633 2016 ft 135 kts 200°
2026-05-05 01:16 39.07970 -77.44978 2018 ft 135 kts 200°
2026-05-05 01:16 39.07071 -77.45323 2013 ft 135 kts 200°
2026-05-05 01:17 39.06167 -77.45663 2016 ft 135 kts 197°
2026-05-05 01:17 39.05217 -77.45767 1865 ft 138 kts 186°
2026-05-05 01:17 39.04269 -77.45804 1702 ft 135 kts 187°
2026-05-05 01:17 39.03331 -77.45829 1518 ft 135 kts 187°
2026-05-05 01:18 39.02400 -77.45848 1347 ft 134 kts 184°
2026-05-05 01:18 39.01457 -77.45853 1159 ft 136 kts 184°
2026-05-05 01:18 39.00519 -77.45855 992 ft 135 kts 182°
2026-05-05 01:18 38.99583 -77.45873 801 ft 135 kts 182°
2026-05-05 01:19 38.98645 -77.45909 647 ft 135 kts 181°
2026-05-05 01:19 38.97701 -77.45916 478 ft 138 kts 184°
2026-05-05 01:19 38.96762 -77.45929 308 ft 130 kts 182°
2026-05-05 01:19 38.95985 -77.45946 294 ft 80 kts 181°
2026-05-05 01:20 38.95663 -77.45949 296 ft 20 kts 174°
2026-05-05 01:20 38.95527 -77.45916 299 ft 20 kts 162°
2026-05-05 01:20 38.95392 -77.45836 300 ft 14 kts 152°
2026-05-05 01:20 38.95305 -77.45774 298 ft 16 kts 152°
2026-05-05 01:21 38.95182 -77.45719 297 ft 21 kts 170°
2026-05-05 01:21 38.95067 -77.45711 293 ft 11 kts 169°
2026-05-05 01:21 38.95028 -77.45633 293 ft 12 kts 94°
2026-05-05 01:21 38.95027 -77.45518 294 ft 13 kts 91°
2026-05-05 01:22 38.95009 -77.45432 298 ft 8 kts 149°
2026-05-05 01:22 38.94979 -77.45425 298 ft 3 kts 177°
2026-05-05 01:22 38.94955 -77.45426 298 ft 4 kts 183°
2026-05-05 01:22 38.94945 -77.45427 298 ft 2 kts 183°
2026-05-05 01:23 38.94941 -77.45427 299 ft 0 kts 183°
2026-05-05 01:23 38.94936 -77.45427 299 ft 1 kts 183°
2026-05-05 01:23 38.94932 -77.45427 298 ft 0 kts 183°